When you browse on this site, cookies collect data to enhance your experience and personalize the content and advertising you see.
Visit our Privacy Policy to learn more. By continuing to use the site, you agree to this use of cookies and data.
  • In Denmark
  • List of Countries
  • For 7 days
  • Water Temperature
  • Weather Map
  • Weather Widgets
  • user-avatar
    Login

    Hourly Weather Korçe

    Today, 10 April, Friday

    Time Temperature Precipitation Wind Pressure Humidity
    00:00 +6°C° 0 mm 1 mps 667 mmHg 60%
    01:00 +6°C° 0 mm 1 mps 667 mmHg 58%
    02:00 +6°C° 0 mm 1 mps 667 mmHg 59%
    03:00 +6°C° 0 mm 1 mps 666 mmHg 59%
    04:00 +5°C° 0 mm 1 mps 666 mmHg 59%
    05:00 +7°C° 0 mm 1 mps 667 mmHg 58%
    06:00 +8°C° 0 mm 1 mps 667 mmHg 58%
    07:00 +10°C° 0 mm 1 mps 668 mmHg 57%
    08:00 +11°C° 0 mm 1 mps 669 mmHg 51%
    09:00 +13°C° 0 mm 1 mps 669 mmHg 45%
    10:00 +15°C° 0 mm 1 mps 669 mmHg 38%
    11:00 +16°C° 0 mm 2 mps 670 mmHg 37%
    12:00 +17°C° 0 mm 2 mps 670 mmHg 35%
    13:00 +17°C° 0 mm 2 mps 670 mmHg 33%
    14:00 +17°C° 0 mm 2 mps 669 mmHg 38%
    15:00 +16°C° 0 mm 2 mps 669 mmHg 42%
    16:00 +16°C° 0 mm 3 mps 668 mmHg 46%
    17:00 +14°C° 0 mm 2 mps 668 mmHg 55%
    18:00 +12°C° 0 mm 2 mps 668 mmHg 64%
    19:00 +10°C° 0 mm 1 mps 667 mmHg 73%
    20:00 +9°C° 0 mm 1 mps 667 mmHg 73%
    21:00 +9°C° 0 mm 1 mps 667 mmHg 72%
    22:00 +8°C° 0 mm 1 mps 667 mmHg 72%
    23:00 +8°C° 0 mm 1 mps 668 mmHg 71%

    Tomorrow, 11 April, Saturday

    Time Temperature Precipitation Wind Pressure Humidity
    00:00 +8°C° 0 mm 1 mps 668 mmHg 69%
    01:00 +8°C° 0 mm 1 mps 668 mmHg 68%
    02:00 +7°C° 0 mm 1 mps 668 mmHg 68%
    03:00 +7°C° 0 mm 1 mps 667 mmHg 68%
    04:00 +7°C° 0 mm 1 mps 667 mmHg 68%
    05:00 +8°C° 0 mm 1 mps 668 mmHg 66%
    06:00 +9°C° 0 mm 1 mps 668 mmHg 65%
    07:00 +10°C° 0 mm 1 mps 669 mmHg 63%
    08:00 +12°C° 0 mm 1 mps 669 mmHg 57%
    09:00 +14°C° 0 mm 1 mps 670 mmHg 51%
    10:00 +15°C° 0 mm 0 mps 671 mmHg 44%
    11:00 +18°C° 0 mm 1 mps 671 mmHg 43%
    12:00 +18°C° 0 mm 1 mps 671 mmHg 41%
    13:00 +17°C° 0 mm 2 mps 671 mmHg 39%
    14:00 +17°C° 0 mm 2 mps 670 mmHg 45%
    15:00 +16°C° 0 mm 2 mps 670 mmHg 51%
    16:00 +15°C° 0 mm 2 mps 669 mmHg 57%
    17:00 +14°C° 0.1 mm 2 mps 669 mmHg 65%
    18:00 +12°C° 0.1 mm 1 mps 669 mmHg 73%
    19:00 +10°C° 0.1 mm 1 mps 668 mmHg 81%
    20:00 +10°C° 0.1 mm 1 mps 669 mmHg 81%
    21:00 +10°C° 0.1 mm 1 mps 669 mmHg 81%
    22:00 +10°C° 0.1 mm 1 mps 669 mmHg 81%
    23:00 +9°C° 0.1 mm 1 mps 669 mmHg 81%

    Day after tomorrow, 12 April, Sunday

    Time Temperature Precipitation Wind Pressure Humidity
    00:00 +9°C° 0.1 mm 1 mps 669 mmHg 82%
    01:00 +9°C° 0.1 mm 1 mps 669 mmHg 82%
    02:00 +9°C° 0.1 mm 1 mps 669 mmHg 83%
    03:00 +9°C° 0.1 mm 1 mps 669 mmHg 83%
    04:00 +8°C° 0.1 mm 1 mps 669 mmHg 84%
    05:00 +9°C° 0.1 mm 1 mps 669 mmHg 81%
    06:00 +10°C° 0.1 mm 1 mps 670 mmHg 78%
    07:00 +11°C° 0.1 mm 1 mps 670 mmHg 76%
    08:00 +12°C° 0.2 mm 1 mps 670 mmHg 70%
    09:00 +13°C° 0.2 mm 2 mps 671 mmHg 65%
    10:00 +15°C° 0.2 mm 2 mps 671 mmHg 60%
    11:00 +14°C° 0.6 mm 2 mps 671 mmHg 61%
    12:00 +14°C° 0.6 mm 2 mps 671 mmHg 63%
    13:00 +14°C° 0.6 mm 2 mps 671 mmHg 64%
    14:00 +14°C° 0.7 mm 2 mps 670 mmHg 67%
    15:00 +13°C° 0.7 mm 2 mps 670 mmHg 70%
    16:00 +13°C° 0.7 mm 2 mps 669 mmHg 73%
    17:00 +12°C° 0.4 mm 1 mps 669 mmHg 77%
    18:00 +11°C° 0.4 mm 1 mps 669 mmHg 82%
    19:00 +10°C° 0.4 mm 1 mps 668 mmHg 86%
    20:00 +8°C° 0.2 mm 0 mps 668 mmHg 86%
    21:00 +8°C° 0.2 mm 0 mps 669 mmHg 86%
    22:00 +7°C° 0.2 mm 0 mps 669 mmHg 87%
    23:00 +7°C° 0 mm 0 mps 668 mmHg 87%

    13 April, Monday

    Time Temperature Precipitation Wind Pressure Humidity
    00:00 +7°C° 0 mm 0 mps 668 mmHg 87%
    01:00 +7°C° 0 mm 1 mps 668 mmHg 87%
    02:00 +7°C° 0 mm 1 mps 668 mmHg 87%
    03:00 +6°C° 0 mm 1 mps 667 mmHg 87%
    04:00 +6°C° 0 mm 1 mps 667 mmHg 87%
    05:00 +7°C° 0 mm 1 mps 667 mmHg 84%
    06:00 +8°C° 0 mm 1 mps 668 mmHg 80%
    07:00 +10°C° 0 mm 1 mps 668 mmHg 76%
    08:00 +11°C° 0 mm 1 mps 669 mmHg 67%
    09:00 +12°C° 0 mm 1 mps 669 mmHg 57%
    10:00 +14°C° 0 mm 2 mps 669 mmHg 48%
    11:00 +14°C° 0 mm 2 mps 669 mmHg 47%
    12:00 +14°C° 0 mm 2 mps 669 mmHg 45%
    13:00 +15°C° 0 mm 2 mps 669 mmHg 43%
    14:00 +13°C° 0 mm 3 mps 669 mmHg 46%
    15:00 +13°C° 0 mm 3 mps 668 mmHg 48%
    16:00 +13°C° 0 mm 3 mps 668 mmHg 51%
    17:00 +12°C° 0 mm 2 mps 667 mmHg 59%
    18:00 +9°C° 0 mm 2 mps 667 mmHg 68%
    19:00 +9°C° 0 mm 1 mps 666 mmHg 76%
    20:00 +8°C° 0 mm 1 mps 666 mmHg 79%
    21:00 +7°C° 0 mm 1 mps 666 mmHg 82%
    22:00 +7°C° 0 mm 1 mps 666 mmHg 85%
    23:00 +6°C° 0 mm 1 mps 666 mmHg 86%

    14 April, Tuesday

    Time Temperature Precipitation Wind Pressure Humidity
    00:00 +6°C° 0 mm 1 mps 666 mmHg 87%
    01:00 +5°C° 0 mm 1 mps 665 mmHg 88%
    02:00 +5°C° 0 mm 1 mps 665 mmHg 87%
    03:00 +5°C° 0 mm 1 mps 665 mmHg 86%
    04:00 +4°C° 0 mm 1 mps 664 mmHg 85%
    05:00 +5°C° 0 mm 1 mps 665 mmHg 79%
    06:00 +7°C° 0 mm 1 mps 665 mmHg 72%
    07:00 +8°C° 0 mm 1 mps 665 mmHg 66%
    08:00 +8°C° 0 mm 2 mps 666 mmHg 58%
    09:00 +10°C° 0 mm 2 mps 666 mmHg 50%
    10:00 +12°C° 0 mm 2 mps 666 mmHg 41%
    11:00 +13°C° 0.1 mm 2 mps 666 mmHg 42%
    12:00 +13°C° 0.1 mm 2 mps 666 mmHg 43%
    13:00 +13°C° 0.1 mm 2 mps 666 mmHg 43%
    14:00 +13°C° 0 mm 2 mps 666 mmHg 45%
    15:00 +13°C° 0 mm 2 mps 666 mmHg 47%
    16:00 +13°C° 0 mm 2 mps 665 mmHg 49%
    17:00 +12°C° 0 mm 1 mps 665 mmHg 54%
    18:00 +11°C° 0 mm 1 mps 664 mmHg 60%
    19:00 +9°C° 0 mm 1 mps 664 mmHg 65%
    20:00 +9°C° 0 mm 1 mps 664 mmHg 66%
    21:00 +8°C° 0 mm 1 mps 664 mmHg 67%
    22:00 +8°C° 0 mm 1 mps 664 mmHg 68%
    23:00 +8°C° 0 mm 1 mps 664 mmHg 67%

    15 April, Wednesday

    Time Temperature Precipitation Wind Pressure Humidity
    00:00 +7°C° 0 mm 1 mps 664 mmHg 67%
    01:00 +7°C° 0 mm 1 mps 663 mmHg 66%
    02:00 +7°C° 0 mm 1 mps 663 mmHg 64%
    03:00 +7°C° 0 mm 1 mps 663 mmHg 63%
    04:00 +5°C° 0 mm 2 mps 663 mmHg 61%
    05:00 +8°C° 0 mm 1 mps 664 mmHg 60%
    06:00 +9°C° 0 mm 1 mps 664 mmHg 58%
    07:00 +10°C° 0 mm 1 mps 665 mmHg 57%
    08:00 +12°C° 0 mm 1 mps 666 mmHg 52%
    09:00 +14°C° 0 mm 1 mps 666 mmHg 47%
    10:00 +16°C° 0 mm 1 mps 667 mmHg 42%
    11:00 +18°C° 0 mm 1 mps 667 mmHg 42%
    12:00 +18°C° 0 mm 2 mps 667 mmHg 42%
    13:00 +18°C° 0 mm 2 mps 667 mmHg 42%
    14:00 +18°C° 0 mm 2 mps 667 mmHg 45%
    15:00 +18°C° 0 mm 2 mps 667 mmHg 48%
    16:00 +17°C° 0 mm 2 mps 667 mmHg 50%
    17:00 +15°C° 0 mm 2 mps 666 mmHg 60%
    18:00 +13°C° 0 mm 1 mps 666 mmHg 71%
    19:00 +11°C° 0 mm 1 mps 665 mmHg 81%
    20:00 +11°C° 0 mm 1 mps 666 mmHg 82%
    21:00 +10°C° 0 mm 1 mps 666 mmHg 84%
    22:00 +10°C° 0 mm 1 mps 666 mmHg 86%
    23:00 +10°C° 0 mm 1 mps 666 mmHg 86%
    Show more